Fallon NAS, NV

11:28 AM PDT on March 24, 2017 (GMT -0700)
Fallon Naval Air Station

Weather History for KNFL - December, 2013

Change the Weather History Date:

Wednesday, December 11, 2013

  Actual Average Record
Temperature  
Mean Temperature 13 °F -  
Max Temperature 25 °F 45 °F 65 °F (1933)
Min Temperature 1 °F 18 °F -14 °F (1972)
Degree Days  
Heating Degree Days 52    
Moisture  
Dew Point 5 °F    
Average Humidity 75    
Maximum Humidity 88    
Minimum Humidity 53    
Precipitation  
Precipitation 0.00 in - - ()
Sea Level Pressure  
Sea Level Pressure 30.30 in    
Wind  
Wind Speed 2 mph (NNE)    
Max Wind Speed 7 mph    
Max Gust Speed -    
Visibility 10 miles    
Events      
Averages and records for this station are not official NWS values.
T = Trace of Precipitation, MM = Missing Value Source: NWS Daily Summary

Daily Weather History Graph

Daily Weather History Graph

Search for Another Location

Airport or City:

Trip Planner

Search our weather history database for the weather conditions in past years. The results will help you decide how hot, cold, wet, or windy it might be!

Date:

Astronomy

Dec. 11, 2013 Rise Set
Actual Time 7:05 AM PST 4:31 PM PST
Civil Twilight 6:34 AM PST 5:01 PM PST
Nautical Twilight 6:01 AM PST 5:35 PM PST
Astronomical Twilight 5:28 AM PST 6:07 PM PST
Moon 1:06 PM PST (12/11) 1:32 AM PST (12/11)
Length of Visible Light 10h 26m
Length of Day
9h 26m
Waxing Gibbous, 72% of the Moon is Illuminated
Dec 11
Waxing Gibbous
Dec 17
Full
Dec 25
Last Quarter
Jan 1
New
Jan 7
First Quarter

Hourly Weather History & Observations

Time (PST) Temp. Windchill Dew Point Humidity Pressure Visibility Wind Dir Wind Speed Gust Speed Precip Events Conditions
12:56 AM 6.1 °F - 1.9 °F 83% 30.26 in - Calm Calm - N/A   Clear
1:56 AM 7.0 °F 0.1 °F 3.0 °F 84% 30.27 in - ENE 3.5 mph - N/A   Clear
2:56 AM 5.0 °F - 1.9 °F 87% 30.27 in - Calm Calm - N/A   Clear
3:56 AM 5.0 °F - 1.0 °F 84% 30.27 in - Calm Calm - N/A   Clear
4:56 AM 5.0 °F - 1.9 °F 87% 30.27 in - Calm Calm - N/A   Clear
5:56 AM 1.9 °F - -0.9 °F 88% 30.29 in - Calm Calm - N/A   Clear
6:16 AM 3.0 °F - -0.9 °F 84% 30.43 in 10.0 mi Calm Calm - N/A   Partly Cloudy
6:56 AM 3.9 °F - -0.0 °F 84% 30.30 in 7.0 mi Calm Calm - N/A   Partly Cloudy
7:56 AM 8.1 °F - 3.0 °F 80% 30.31 in 7.0 mi Calm Calm - N/A   Partly Cloudy
8:56 AM 14.0 °F - 8.1 °F 77% 30.32 in 10.0 mi Calm Calm - N/A   Partly Cloudy
9:56 AM 17.1 °F 7.6 °F 8.1 °F 68% 30.35 in 10.0 mi NE 6.9 mph - N/A   Partly Cloudy
10:56 AM 19.0 °F 13.9 °F 8.1 °F 62% 30.32 in 10.0 mi NE 3.5 mph - N/A   Partly Cloudy
11:56 AM 21.9 °F - 9.0 °F 58% 30.30 in 10.0 mi Calm Calm - N/A   Partly Cloudy
12:56 PM 24.1 °F 17.0 °F 9.0 °F 53% 30.29 in 10.0 mi North 5.8 mph - N/A   Partly Cloudy
1:56 PM 25.0 °F 19.3 °F 10.0 °F 53% 30.28 in 10.0 mi Variable 4.6 mph - N/A   Partly Cloudy
2:56 PM 25.0 °F 18.1 °F 10.9 °F 55% 30.28 in 10.0 mi North 5.8 mph - N/A   Partly Cloudy
3:56 PM 24.1 °F 18.2 °F 10.9 °F 57% 30.27 in 10.0 mi NE 4.6 mph - N/A   Partly Cloudy
4:56 PM 19.0 °F 12.3 °F 10.0 °F 68% 30.27 in 10.0 mi NE 4.6 mph - N/A   Partly Cloudy
5:56 PM 16.0 °F 7.4 °F 9.0 °F 74% 30.28 in - NE 5.8 mph - N/A   Partly Cloudy
6:56 PM 12.9 °F 5.2 °F 8.1 °F 81% 30.30 in 10.0 mi NE 4.6 mph - N/A   Clear
7:56 PM 10.9 °F 2.9 °F 6.1 °F 81% 30.30 in 10.0 mi North 4.6 mph - N/A   Clear
8:56 PM 10.9 °F - 6.1 °F 81% 30.30 in 10.0 mi Calm Calm - N/A   Clear
9:56 PM 10.0 °F 3.6 °F 5.0 °F 80% 30.30 in 10.0 mi NW 3.5 mph - N/A   Clear
10:56 PM 8.1 °F - 3.9 °F 83% 30.29 in 10.0 mi Calm Calm - N/A   Clear
11:56 PM 8.1 °F - 3.9 °F 83% 30.28 in 9.0 mi Calm Calm - N/A   Clear